Погода в Княгинине

Россия / Брянская область     52°12′48″N   34°25′42″E
темп.,
°C
ветер,
м/с
пор.,
м/с
влажн.,
%
обл.,
%
осадки,
мм/ч
давл.,
гПа
погр.,
м
17 апреля, сб
сб1700:00+6юв369155 0.1 1017129
03:00+5юв35945 0.1 1017103
06:00+4юв239398 0.0 101871
09:00+7вюв2379100 0.0 1019451
12:00+9в0169100 0.2 1018967
15:00+9с3376100 1.0 1018621
18:00+8с2280100 0.6 1017284
21:00+6всв2390100 1.4 101777
18 апреля, вс
вс1800:00+6ю2585100 0.8 1017127
03:00+5ю2488100 0.8 101799
06:00+4ю23898 0.0 101852
09:00+7ююв3476100 0.1 1018615
12:00+7ю4584100 0.6 1019820
15:00+8ю2372100 1.1 1019948
18:00+8ссв2378100 0.4 1018313
21:00+6в368799 0.4 1019194
19 апреля, пн
пн1900:00+6в4691100 0.2 1019293
03:00+5вюв3494100 5.5 1018414
06:00+5св3696100 4.7 1018238
09:00+7в379490 10.5 1018482
12:00+10вюв677589 0.3 10171024
15:00+10вюв6775100 0.5 10171079
18:00+8ссв239299 6.7 1017101
21:00+8св358685 7.3 1016109
20 апреля, вт
вт2000:00+7всв5109351 0.0 1015314
03:00+6всв5119574 0.0 1013382
06:00+7св61195100 0.2 1011598
09:00+6всв61193100 0.3 1010606
12:00+6св61294100 0.1 1007621
15:00+7св81595100 2.1 1000658
18:00+7св101694100 10.9 994992
21:00+10вюв71386100 14.3 990772
21 апреля, ср
ср2100:00+9вюв91591100 5.6 9891336
03:00+7юз3797100 9.1 987477
06:00+2зюз101695100 0.3 995768
09:00+3зюз91596100 0.8 1002890
12:00+5зюз81489100 0.1 10071289
15:00+9зюз81471100 0.3 10101531
18:00+9зюз6972100 0.3 10131105
21:00+7ююз388476 0.4 1016199